This is the latest recevied weather packets stored in our database for station/object KF6ILA. If no packets are shown the sender has not sent any weather packets the latest 10 day(s).
| Time | Temp. | Humidity | Pressure | Rain* | Wind** | Luminosity | Snow |
|---|---|---|---|---|---|---|---|
| 1787929992 | 28.89° C | 34% | 1018.2 hPa | 0 mm | - | 455 W/m² | - |
| 1787929695 | 28.33° C | 35% | 1018.2 hPa | 0 mm | - | 443 W/m² | - |
| 1787929101 | 27.22° C | 36% | 1018.1 hPa | 0 mm | - | 304 W/m² | - |
| 1787928804 | 26.67° C | 39% | 1018.1 hPa | 0 mm | - | 281 W/m² | - |
| 1787928210 | 25.56° C | 41% | 1018.1 hPa | 0 mm | - | 244 W/m² | - |
| 1787927913 | 26.11° C | 41% | 1018 hPa | 0 mm | - | 53 W/m² | - |
| 1787927616 | 26.11° C | 40% | 1017.9 hPa | 0 mm | - | 84 W/m² | - |
| 1787927319 | 26.11° C | 40% | 1017.9 hPa | 0 mm | - | 40 W/m² | - |
| 1787927022 | 26.11° C | 40% | 1017.9 hPa | 0 mm | - | 40 W/m² | - |
| 1787926725 | 26.11° C | 40% | 1017.9 hPa | 0 mm | - | 33 W/m² | - |
| 1787926131 | 26.11° C | 41% | 1017.7 hPa | 0 mm | - | 23 W/m² | - |
| 1787925834 | 25.56° C | 41% | 1017.5 hPa | 0 mm | - | 23 W/m² | - |
| 1787925537 | 26.11° C | 42% | 1017.4 hPa | 0 mm | - | 21 W/m² | - |
| 1787925240 | 25.56° C | 42% | 1017.3 hPa | 0 mm | - | 18 W/m² | - |
| 1787924943 | 25.56° C | 42% | 1017.3 hPa | 0 mm | - | 16 W/m² | - |
| 1787924646 | 25.56° C | 42% | 1017.2 hPa | 0 mm | - | 16 W/m² | - |
| 1787924349 | 25.56° C | 42% | 1017.1 hPa | 0 mm | - | 14 W/m² | - |
| 1787923755 | 25.56° C | 42% | 1017 hPa | 0 mm | - | 7 W/m² | - |
| 1787923458 | 25.56° C | 42% | 1017 hPa | 0 mm | - | 5 W/m² | - |
| 1787923161 | 25.56° C | 42% | 1017 hPa | 0 mm | - | 0 W/m² | - |
| 1787922864 | 25.56° C | 42% | 1016.9 hPa | 0 mm | - | 0 W/m² | - |
| 1787922567 | 25.56° C | 42% | 1016.9 hPa | 0 mm | - | 0 W/m² | - |
| 1787922270 | 25.56° C | 41% | 1016.8 hPa | 0 mm | - | 0 W/m² | - |
| 1787921973 | 25.56° C | 40% | 1016.8 hPa | 0 mm | - | 0 W/m² | - |
| 1787921676 | 25.56° C | 40% | 1016.8 hPa | 0 mm | - | 0 W/m² | - |
* Rain latest hour (hover to see other rain measurements)
** Current wind speed in m/s (hover to see current wind gust speed)